Retour au catalogue

MIDAS 4 DEB

ActifPO
NORAD 27478·DEBRIS·🇺🇸 United States

Lancé Oct 21, 1961 depuis Vandenberg Space Force Base

Loading…

Prochains Passages (prochaines 24 heures)

TLE

FraisSource: Space-Track

Époque: Sep 11, 2026, 21:26 UTC

1 27478U 61028H   26254.89330720 -.00000015  00000-0 -49256-2 0  9992
2 27478  95.8521 236.3976 0262266 243.3471 138.6644  8.66661688598306

Suivez MIDAS 4 DEB en temps réel avec AllMySat

Download on the App Store